Location: ???? ???? ?????
(31.2680°N, 31.7283°E)
Time: 04:17:27
(UTC+00:00)

SPOT 5 - Pass Details

Date: 13 July 2020
Orbit: 622 x 815 km, 98.3° (Epoch: 11 August)

Event Time Altitude Azimuth Distance (km) Brightness Sun altitude
Exits shadow 19:25:43 46° 54° (NE) 959 3.4 -25.6°
Drops below altitude 10° 19:29:45 10° 1° (N) 2,152 5.9 -26.1°
Sets 19:31:59 0° 356° (N) 3,042 6.9 -26.4°
